Showing default

EXPLORER 27, 1328

Orbit data source: Space-Track

EXPLORER 27, 1328 is a payload satellite owned by GSFC (US) in LEO that was launched on Thu, 29 Apr 1965 UTC via an SCOUT X-4 launch vehicle from the Wallops Island (WLPIS). Payload-class satellites include a variety of spacecraft equipped with specific instruments for various scientific and technological missions. These include communications satellites like Starlink; space stations such as the ISS; scientific satellites like the Hubble; Earth observation satellites from companies like Planet Labs, Umbra, and HawkEye 360; GPS; miniature CubeSats for education and research; and military/defense satellites.

Loading next visibility...
Identifier
1328, 1965-032A
Orbit
LEO
Country
Flag of USUS
Related business
Manufacturer
APL
Mission
Spacecraft
Bus & Motor
TRANSIT 5, Unknown motor
Mass
55 kg wet, 55 kg dry
Launch date (UTC)
1965-04-29 (61 years ago)
Launch vehicle
SCOUT X-4
Launch site
Wallops Island (WLPIS)
Object type
Payload
Rocket body
Debris
Shape & HBR
Unknown
Radar Cross Section
Large (>1 m²)

Expand to show TLE details & history
Last TLE update: 5 hours ago

TLE from 5 hours ago
0 EXPLORER 27
1  1328U 65032A   26121.78824795 -.00000051  00000-0  55953-4 0  9990
2  1328  41.1817 215.8121 0240899  64.5659 297.9817 13.38925522982119
Epoch: 2026-05-01T18:55Z
TLE epoch observation values (Epoch: 2026-05-01T18:55:04.622Z)
Latitude
0.00001°
Longitude
72.32737°
Altitude
1,031.677 km
Speed
7.377 km/s
True Right ascension
14h 23m 14s
True Declination
0° 00' 00"
Sunlit
Object was in full shadow at epoch
Visualization orbit readout
Latitude
Unknown
Longitude
Unknown
Altitude
Unknown
Speed
Unknown
Apparent Right ascension
Unknown
Apparent Declination
Unknown
Sunlit
N/A
Visualization observer readout
Local Sidereal Time
07:35:22
Azimuth
Unknown
Elevation
Unknown
Doppler factor
Unknown
Orbital elements
Apogee altitude
1,295.864 km
Perigee altitude
934.83 km
Semi-major axis
7,493.484 km
Eccentricity
0.02409
Inclination
41.1817°
RAAN
215.8121°
Arg. of periapsis
64.5659°
True anomaly
295.50976°
Mean anomaly
297.9817°
Eccentric anomaly
296.74916°
Mean motion
3.34594 °/min
Orbital period
107.59 mins
BSTAR
0.000055953
Loading maneuver chart data...
Computing Atmospheric mass density...
Loading historical data...
Loading historical data...
Loading historical data...
Loading historical data...
Loading historical data...
Loading historical data...
Loading historical data...
Other satellites on launch #32 in the year 1965 (1965-04-29 UTC)

Documentation

Showing up to 5 results
|